Weather in Ostroleka

Poland     53°04′46″N   21°34′30″E
temp.,
°C
wind,
m/s
gust,
m/s
humid.,
%
clouds,
%
prec.,
mm/h
press.,
hPa
HPBL,
m
22 april, thu
thu2223:00+8w227560 0.1 100922
02:00+5w369396 0.1 1010116
05:00+5wnw51090100 0.3 1011848
08:00+6wsw6883100 1.2 1011824
11:00+7w795749 0.1 10121251
14:00+8w9115867 0.8 10131853
17:00+8w7116697 0.6 10131561
20:00+4wnw497215 0.9 1014241
23 april, fri
fri2323:00+3wsw51174100 0.0 1014372
02:00+2w6136851 0.0 1014514
05:00+1w61276100 0.0 1015473
08:00+4w611689 0.0 1017774
11:00+8wnw91246100 0.1 10172616
14:00+8nw71051100 0.8 10172048
17:00+6nnw711629 0.8 10181495
20:00+3nw49595 0.8 1020218
24 april, sat
sat2423:000wnw49725 0.0 1020175
02:00−1wnw36775 0.0 1021118
05:00−1w35775 0.0 102196
08:00+4w47555 0.0 1021427
11:00+8wnw7939100 0.1 10202833
14:00+9wnw7939100 0.1 10202487
17:00+5nnw677491 0.7 1020698
20:00+3nnw496658 1.1 1020318
25 april, sun
sun2523:00−1nw34720 0.0 102150
02:00−2wnw34775 0.0 102161
05:00−2w367627 0.0 1020122
08:00+3w475943 0.0 1020427
11:00+7w6742100 0.1 10182403
14:00+7nw894396 0.6 10182110
17:00+6nw7860100 0.6 10181421
20:00+1nw47705 0.8 1019119
26 april, mon
mon2623:00−1wnw357878 0.0 102073
02:00−1w358046 0.0 1019108
05:00−2wsw38835 0.0 1018162
08:00+3w6105796 0.0 1017534
11:00+8w6842100 0.0 10162466
14:00+9wnw7942100 0.0 10152205
17:00+9nw695497 0.1 10141783
20:00+3nnw36755 0.1 101581